Station Historical Data
Daily Summary for February 29, 2012 Units:  English    Metric   Both
« Previous Day
Next Day »
Daily Weekly Monthly Yearly Custom
  High: Low: Average:
Temperature: 72.9 °F 60.2 °F 66.2 °F
Dew Point: 64.8 °F 58.8 °F 62.5 °F
Humidity: 95% 72% 88%
Wind Speed: 22.0mph 3.0mph 10.3mph
Wind Gust: 29.0mph - -
Wind- - SSW
Pressure: 30.06 in 29.74 in -
Precipitation: 0.05 in    
Historical Graphs
 
 
Tabular Data for February 29, 2012
Time Temperature Dew Point Pressure Wind Wind Speed Wind Gust Humidity Rainfall Rate (Hourly) Conditions
00:00 60.2 °F 58.8 °F 30.05 in SSE 11.0 mph 16.0 mph 95% 0.00 in
00:01 60.2 °F 58.8 °F 30.05 in SSE 7.0 mph 16.0 mph 95% 0.00 in
00:05 60.3 °F 58.9 °F 30.04 in SE 13.0 mph 16.0 mph 95% 0.00 in
00:10 60.4 °F 59.0 °F 30.05 in South 9.0 mph 17.0 mph 95% 0.00 in
00:15 60.4 °F 59.0 °F 30.05 in South 7.0 mph 13.0 mph 95% 0.00 in
00:21 60.4 °F 59.0 °F 30.05 in SSE 5.0 mph 8.0 mph 95% 0.00 in
00:26 60.4 °F 59.0 °F 30.06 in SSE 11.0 mph 11.0 mph 95% 0.00 in
00:31 60.5 °F 59.1 °F 30.05 in SSE 8.0 mph 13.0 mph 95% 0.00 in
00:36 60.5 °F 59.1 °F 30.05 in ESE 11.0 mph 11.0 mph 95% 0.00 in
00:41 60.6 °F 59.2 °F 30.05 in South 7.0 mph 13.0 mph 95% 0.00 in
00:46 60.6 °F 59.2 °F 30.04 in SSW 10.0 mph 14.0 mph 95% 0.00 in
00:51 60.6 °F 59.2 °F 30.04 in SE 10.0 mph 16.0 mph 95% 0.00 in
00:56 60.7 °F 59.3 °F 30.04 in South 9.0 mph 12.0 mph 95% 0.00 in
01:01 60.8 °F 59.4 °F 30.04 in SE 11.0 mph 13.0 mph 95% 0.00 in
01:06 60.8 °F 59.4 °F 30.04 in SE 8.0 mph 14.0 mph 95% 0.00 in
01:11 60.9 °F 59.5 °F 30.04 in SE 12.0 mph 14.0 mph 95% 0.00 in
01:16 61.0 °F 59.6 °F 30.03 in South 10.0 mph 17.0 mph 95% 0.00 in
01:21 61.0 °F 59.6 °F 30.03 in SE 11.0 mph 17.0 mph 95% 0.00 in
01:26 61.1 °F 59.7 °F 30.03 in SSE 15.0 mph 16.0 mph 95% 0.00 in
01:32 61.2 °F 59.8 °F 30.04 in SSW 11.0 mph 17.0 mph 95% 0.00 in
01:37 61.2 °F 59.8 °F 30.04 in SSE 12.0 mph 12.0 mph 95% 0.00 in
01:42 61.3 °F 59.9 °F 30.04 in SSW 8.0 mph 13.0 mph 95% 0.00 in
01:47 61.3 °F 59.9 °F 30.03 in South 4.0 mph 14.0 mph 95% 0.00 in
01:52 61.3 °F 59.9 °F 30.03 in South 7.0 mph 16.0 mph 95% 0.00 in
01:57 61.4 °F 60.0 °F 30.04 in South 5.0 mph 13.0 mph 95% 0.00 in
02:02 61.4 °F 60.0 °F 30.04 in SSE 10.0 mph 12.0 mph 95% 0.00 in
02:07 61.4 °F 60.0 °F 30.03 in SSW 7.0 mph 12.0 mph 95% 0.00 in
02:12 61.4 °F 60.0 °F 30.03 in South 5.0 mph 13.0 mph 95% 0.00 in
02:17 61.4 °F 60.0 °F 30.02 in SSW 7.0 mph 13.0 mph 95% 0.00 in
02:22 61.5 °F 60.1 °F 30.01 in South 4.0 mph 11.0 mph 95% 0.00 in
02:27 61.5 °F 60.1 °F 30.00 in SE 8.0 mph 16.0 mph 95% 0.00 in
02:32 61.5 °F 60.1 °F 29.99 in SE 14.0 mph 15.0 mph 95% 0.00 in
02:37 61.5 °F 60.1 °F 29.98 in SSE 13.0 mph 16.0 mph 95% 0.00 in
02:42 61.6 °F 60.2 °F 29.98 in SSW 11.0 mph 17.0 mph 95% 0.00 in
02:47 61.7 °F 60.3 °F 29.97 in SSE 14.0 mph 19.0 mph 95% 0.00 in
02:53 61.7 °F 60.3 °F 29.98 in SE 10.0 mph 13.0 mph 95% 0.00 in
02:58 61.8 °F 60.4 °F 29.99 in South 6.0 mph 12.0 mph 95% 0.00 in
03:03 61.9 °F 60.5 °F 30.00 in SSW 12.0 mph 16.0 mph 95% 0.00 in
03:08 62.0 °F 60.6 °F 29.99 in SSE 11.0 mph 16.0 mph 95% 0.00 in
03:13 62.0 °F 60.6 °F 29.97 in SSE 15.0 mph 17.0 mph 95% 0.00 in
03:18 62.0 °F 60.6 °F 29.97 in SW 13.0 mph 21.0 mph 95% 0.00 in
03:23 62.1 °F 60.7 °F 29.97 in South 14.0 mph 18.0 mph 95% 0.00 in
03:28 62.2 °F 60.8 °F 29.96 in SSE 12.0 mph 19.0 mph 95% 0.00 in
03:33 62.2 °F 60.8 °F 29.96 in South 8.0 mph 22.0 mph 95% 0.00 in
03:38 62.3 °F 60.8 °F 29.95 in SSE 9.0 mph 19.0 mph 95% 0.00 in
03:43 62.4 °F 61.0 °F 29.94 in SE 10.0 mph 21.0 mph 95% 0.00 in
03:48 62.4 °F 61.0 °F 29.95 in SSW 10.0 mph 12.0 mph 95% 0.00 in
03:53 62.5 °F 61.0 °F 29.96 in SSE 8.0 mph 12.0 mph 95% 0.00 in
03:58 62.6 °F 61.2 °F 29.96 in SSW 8.0 mph 14.0 mph 95% 0.00 in
04:03 62.6 °F 60.8 °F 29.96 in SSW 12.0 mph 14.0 mph 94% 0.00 in
04:08 62.7 °F 61.0 °F 29.96 in SSW 8.0 mph 11.0 mph 94% 0.00 in
04:13 62.7 °F 61.0 °F 29.96 in South 11.0 mph 12.0 mph 94% 0.00 in
04:18 62.8 °F 61.0 °F 29.96 in South 10.0 mph 17.0 mph 94% 0.00 in
04:23 62.9 °F 61.2 °F 29.95 in SSE 8.0 mph 12.0 mph 94% 0.00 in
04:28 62.9 °F 61.2 °F 29.94 in SSE 11.0 mph 15.0 mph 94% 0.00 in
04:33 63.0 °F 61.2 °F 29.95 in SSW 11.0 mph 20.0 mph 94% 0.00 in
04:38 63.1 °F 61.3 °F 29.96 in SSE 9.0 mph 21.0 mph 94% 0.00 in
04:43 63.2 °F 61.5 °F 29.96 in SSW 14.0 mph 17.0 mph 94% 0.00 in
04:48 63.3 °F 61.5 °F 29.95 in South 9.0 mph 14.0 mph 94% 0.00 in
04:53 63.4 °F 61.7 °F 29.95 in SSW 13.0 mph 19.0 mph 94% 0.00 in
04:58 63.5 °F 61.4 °F 29.96 in South 13.0 mph 13.0 mph 93% 0.00 in
05:03 63.5 °F 61.4 °F 29.96 in South 9.0 mph 18.0 mph 93% 0.00 in
05:08 63.6 °F 61.5 °F 29.96 in SSW 15.0 mph 16.0 mph 93% 0.00 in
05:14 63.7 °F 61.6 °F 29.96 in South 8.0 mph 19.0 mph 93% 0.00 in
05:19 63.7 °F 61.6 °F 29.96 in SSW 10.0 mph 15.0 mph 93% 0.00 in
05:24 63.7 °F 61.6 °F 29.97 in SSW 15.0 mph 15.0 mph 93% 0.00 in
05:29 63.7 °F 61.6 °F 29.96 in South 9.0 mph 17.0 mph 93% 0.00 in
05:34 63.7 °F 61.6 °F 29.97 in SW 6.0 mph 16.0 mph 93% 0.00 in
05:39 63.8 °F 61.7 °F 29.96 in SW 10.0 mph 15.0 mph 93% 0.00 in
05:44 63.9 °F 61.8 °F 29.97 in South 7.0 mph 16.0 mph 93% 0.00 in
05:49 64.0 °F 61.9 °F 29.97 in SSW 9.0 mph 14.0 mph 93% 0.00 in
05:54 64.1 °F 62.0 °F 29.96 in SSE 15.0 mph 15.0 mph 93% 0.00 in
05:59 64.1 °F 61.7 °F 29.97 in SSW 9.0 mph 14.0 mph 92% 0.00 in
06:04 64.2 °F 61.8 °F 29.97 in South 12.0 mph 14.0 mph 92% 0.00 in
06:09 64.2 °F 61.8 °F 29.97 in South 7.0 mph 11.0 mph 92% 0.00 in
06:14 64.3 °F 61.9 °F 29.97 in SSW 8.0 mph 14.0 mph 92% 0.00 in
06:19 64.3 °F 61.9 °F 29.97 in South 14.0 mph 14.0 mph 92% 0.00 in
06:24 64.4 °F 62.0 °F 29.96 in SW 10.0 mph 13.0 mph 92% 0.00 in
06:29 64.5 °F 61.8 °F 29.96 in South 11.0 mph 13.0 mph 91% 0.00 in
06:34 64.5 °F 61.8 °F 29.96 in SSW 9.0 mph 11.0 mph 91% 0.00 in
06:39 64.5 °F 61.8 °F 29.97 in SSW 6.0 mph 14.0 mph 91% 0.00 in
06:44 64.6 °F 61.9 °F 29.97 in SSW 7.0 mph 15.0 mph 91% 0.00 in
06:49 64.6 °F 61.9 °F 29.97 in South 9.0 mph 14.0 mph 91% 0.00 in
06:54 64.6 °F 61.9 °F 29.97 in SW 6.0 mph 11.0 mph 91% 0.00 in
06:59 64.6 °F 61.9 °F 29.97 in SSW 10.0 mph 10.0 mph 91% 0.00 in
07:04 64.6 °F 61.9 °F 29.97 in SSW 7.0 mph 14.0 mph 91% 0.00 in
07:09 64.8 °F 62.1 °F 29.96 in SW 10.0 mph 18.0 mph 91% 0.00 in
07:14 64.9 °F 62.2 °F 29.97 in South 6.0 mph 12.0 mph 91% 0.00 in
07:19 64.9 °F 62.2 °F 29.97 in SW 11.0 mph 15.0 mph 91% 0.00 in
07:24 65.0 °F 62.3 °F 29.97 in SW 7.0 mph 14.0 mph 91% 0.00 in
07:29 65.1 °F 62.4 °F 29.97 in SW 9.0 mph 14.0 mph 91% 0.00 in
07:34 65.1 °F 62.4 °F 29.97 in WSW 12.0 mph 13.0 mph 91% 0.00 in
07:39 65.0 °F 62.3 °F 29.97 in South 12.0 mph 12.0 mph 91% 0.00 in
07:44 65.1 °F 62.4 °F 29.97 in SSW 6.0 mph 10.0 mph 91% 0.00 in
07:50 65.2 °F 62.5 °F 29.97 in South 7.0 mph 19.0 mph 91% 0.00 in
07:55 65.3 °F 62.6 °F 29.97 in South 6.0 mph 12.0 mph 91% 0.00 in
08:00 65.4 °F 62.7 °F 29.96 in SSW 8.0 mph 13.0 mph 91% 0.00 in
08:05 65.5 °F 62.8 °F 29.96 in SSW 5.0 mph 12.0 mph 91% 0.00 in
08:10 65.5 °F 62.8 °F 29.96 in SSW 7.0 mph 13.0 mph 91% 0.00 in
08:15 65.6 °F 62.9 °F 29.96 in SSW 10.0 mph 10.0 mph 91% 0.00 in
08:20 65.7 °F 62.7 °F 29.96 in SSE 12.0 mph 13.0 mph 90% 0.00 in
08:25 65.8 °F 62.8 °F 29.96 in SSE 8.0 mph 16.0 mph 90% 0.00 in
08:30 65.9 °F 62.9 °F 29.96 in SW 12.0 mph 17.0 mph 90% 0.00 in
08:35 65.8 °F 62.8 °F 29.97 in SSE 7.0 mph 14.0 mph 90% 0.00 in
08:40 65.9 °F 62.9 °F 29.97 in SSW 9.0 mph 12.0 mph 90% 0.00 in
08:45 66.0 °F 63.0 °F 29.96 in SSW 14.0 mph 14.0 mph 90% 0.00 in
08:46 66.0 °F 63.0 °F 29.96 in SW 11.0 mph 14.0 mph 90% 0.00 in
08:51 66.2 °F 63.2 °F 29.96 in SSE 10.0 mph 15.0 mph 90% 0.00 in
08:56 66.4 °F 63.4 °F 29.96 in SSW 9.0 mph 10.0 mph 90% 0.00 in
09:01 66.5 °F 63.5 °F 29.96 in SSW 14.0 mph 15.0 mph 90% 0.00 in
09:06 66.6 °F 63.3 °F 29.95 in SE 11.0 mph 13.0 mph 89% 0.00 in
09:12 66.8 °F 63.5 °F 29.95 in SSW 11.0 mph 18.0 mph 89% 0.00 in
09:17 67.3 °F 63.6 °F 29.95 in South 15.0 mph 22.0 mph 88% 0.00 in
09:22 67.6 °F 63.9 °F 29.95 in SSW 13.0 mph 19.0 mph 88% 0.00 in
09:27 67.8 °F 64.1 °F 29.95 in SE 12.0 mph 15.0 mph 88% 0.00 in
09:32 67.7 °F 63.7 °F 29.95 in SW 12.0 mph 19.0 mph 87% 0.00 in
09:37 67.6 °F 63.9 °F 29.95 in SSW 11.0 mph 16.0 mph 88% 0.00 in
09:42 67.7 °F 64.0 °F 29.94 in SE 8.0 mph 14.0 mph 88% 0.00 in
09:47 67.8 °F 63.8 °F 29.94 in SSW 6.0 mph 17.0 mph 87% 0.00 in
09:52 68.0 °F 64.0 °F 29.94 in SSW 12.0 mph 16.0 mph 87% 0.00 in
09:57 68.1 °F 64.1 °F 29.94 in South 10.0 mph 14.0 mph 87% 0.00 in
10:02 68.2 °F 63.9 °F 29.94 in South 10.0 mph 17.0 mph 86% 0.00 in
10:07 68.1 °F 63.8 °F 29.94 in SSW 11.0 mph 19.0 mph 86% 0.00 in
10:12 68.2 °F 63.9 °F 29.94 in SSW 10.0 mph 20.0 mph 86% 0.00 in
10:17 68.3 °F 64.0 °F 29.94 in South 15.0 mph 18.0 mph 86% 0.00 in
10:22 68.3 °F 64.0 °F 29.94 in South 12.0 mph 17.0 mph 86% 0.00 in
10:27 68.4 °F 64.1 °F 29.94 in SSE 10.0 mph 16.0 mph 86% 0.00 in
10:32 68.5 °F 63.8 °F 29.93 in SW 17.0 mph 17.0 mph 85% 0.00 in
10:37 68.8 °F 64.1 °F 29.93 in SSW 7.0 mph 17.0 mph 85% 0.00 in
10:42 68.8 °F 64.1 °F 29.93 in South 11.0 mph 23.0 mph 85% 0.00 in
10:48 69.1 °F 64.1 °F 29.93 in SSE 8.0 mph 13.0 mph 84% 0.00 in
10:53 69.2 °F 63.8 °F 29.93 in SW 15.0 mph 20.0 mph 83% 0.00 in
10:58 69.2 °F 63.8 °F 29.93 in SSW 11.0 mph 17.0 mph 83% 0.00 in
11:03 69.0 °F 63.6 °F 29.93 in SSW 11.0 mph 24.0 mph 83% 0.00 in
11:08 68.9 °F 63.9 °F 29.93 in SW 11.0 mph 18.0 mph 84% 0.00 in
11:13 68.7 °F 63.7 °F 29.93 in SW 16.0 mph 17.0 mph 84% 0.00 in
11:18 68.7 °F 63.7 °F 29.92 in SSW 15.0 mph 21.0 mph 84% 0.00 in
11:23 68.7 °F 63.7 °F 29.92 in South 6.0 mph 16.0 mph 84% 0.00 in
11:28 68.8 °F 63.8 °F 29.92 in SSW 10.0 mph 20.0 mph 84% 0.00 in
11:33 69.1 °F 64.1 °F 29.92 in SSW 9.0 mph 17.0 mph 84% 0.00 in
11:38 69.5 °F 64.1 °F 29.92 in SSW 7.0 mph 16.0 mph 83% 0.00 in
11:43 69.9 °F 64.5 °F 29.92 in SW 10.0 mph 15.0 mph 83% 0.00 in
11:48 70.6 °F 64.5 °F 29.91 in SW 13.0 mph 21.0 mph 81% 0.00 in
11:53 70.9 °F 64.8 °F 29.91 in SW 12.0 mph 18.0 mph 81% 0.00 in
11:58 70.5 °F 64.0 °F 29.91 in SSW 13.0 mph 16.0 mph 80% 0.00 in
12:03 70.0 °F 63.9 °F 29.91 in SSW 11.0 mph 18.0 mph 81% 0.00 in
12:08 69.9 °F 63.8 °F 29.91 in SE 17.0 mph 17.0 mph 81% 0.00 in
12:13 70.1 °F 63.7 °F 29.90 in SSE 18.0 mph 21.0 mph 80% 0.00 in
12:18 70.1 °F 63.7 °F 29.90 in SSW 19.0 mph 19.0 mph 80% 0.00 in
12:23 70.3 °F 63.8 °F 29.89 in SW 12.0 mph 18.0 mph 80% 0.00 in
12:28 70.4 °F 63.6 °F 29.89 in SW 16.0 mph 16.0 mph 79% 0.00 in
12:33 70.6 °F 63.4 °F 29.89 in SSW 18.0 mph 19.0 mph 78% 0.00 in
12:38 70.7 °F 63.5 °F 29.89 in South 9.0 mph 17.0 mph 78% 0.00 in
12:43 70.6 °F 63.0 °F 29.90 in SSW 17.0 mph 21.0 mph 77% 0.00 in
12:48 70.7 °F 63.5 °F 29.88 in SW 6.0 mph 19.0 mph 78% 0.00 in
12:54 70.5 °F 63.7 °F 29.88 in SW 9.0 mph 15.0 mph 79% 0.00 in
12:59 70.0 °F 63.5 °F 29.88 in SW 13.0 mph 15.0 mph 80% 0.00 in
13:04 69.3 °F 63.9 °F 29.87 in SW 8.0 mph 13.0 mph 83% 0.18 in
13:09 69.2 °F 63.8 °F 29.86 in SW 15.0 mph 16.0 mph 83% 0.07 in
13:14 69.6 °F 64.2 °F 29.86 in South 8.0 mph 13.0 mph 83% 0.04 in
13:19 70.5 °F 64.4 °F 29.85 in WSW 15.0 mph 19.0 mph 81% 0.00 in
13:24 71.0 °F 64.5 °F 29.85 in SW 10.0 mph 21.0 mph 80% 0.00 in
13:29 71.4 °F 64.6 °F 29.85 in SSE 14.0 mph 18.0 mph 79% 0.00 in
13:34 71.4 °F 64.6 °F 29.85 in SSW 15.0 mph 15.0 mph 79% 0.00 in
13:39 71.1 °F 63.9 °F 29.85 in SSW 16.0 mph 17.0 mph 78% 0.00 in
13:44 70.9 °F 63.7 °F 29.85 in SSW 13.0 mph 21.0 mph 78% 0.00 in
13:49 70.8 °F 63.6 °F 29.84 in SSW 19.0 mph 20.0 mph 78% 0.00 in
13:54 71.1 °F 63.9 °F 29.83 in SSW 9.0 mph 18.0 mph 78% 0.00 in
13:59 71.6 °F 64.0 °F 29.83 in SSW 13.0 mph 15.0 mph 77% 0.00 in
14:04 72.0 °F 64.0 °F 29.82 in South 10.0 mph 16.0 mph 76% 0.00 in
14:09 71.9 °F 63.5 °F 29.81 in SSE 14.0 mph 19.0 mph 75% 0.00 in
14:14 71.4 °F 63.1 °F 29.79 in South 12.0 mph 22.0 mph 75% 0.00 in
14:19 71.2 °F 63.3 °F 29.79 in SSE 12.0 mph 16.0 mph 76% 0.00 in
14:24 71.3 °F 63.3 °F 29.81 in SSW 16.0 mph 21.0 mph 76% 0.00 in
14:29 71.4 °F 63.5 °F 29.81 in SW 20.0 mph 20.0 mph 76% 0.00 in
14:34 71.3 °F 63.3 °F 29.81 in South 12.0 mph 28.0 mph 76% 0.00 in
14:39 71.2 °F 63.3 °F 29.81 in SSW 11.0 mph 18.0 mph 76% 0.00 in
14:44 71.3 °F 63.3 °F 29.79 in South 16.0 mph 19.0 mph 76% 0.00 in
14:49 71.5 °F 63.2 °F 29.80 in SSE 15.0 mph 29.0 mph 75% 0.00 in
14:54 71.5 °F 63.2 °F 29.79 in SSW 12.0 mph 22.0 mph 75% 0.00 in
14:59 71.5 °F 63.2 °F 29.79 in SW 13.0 mph 22.0 mph 75% 0.00 in
15:04 71.5 °F 63.2 °F 29.79 in SSW 18.0 mph 19.0 mph 75% 0.00 in
15:09 72.0 °F 62.9 °F 29.78 in SSE 8.0 mph 23.0 mph 73% 0.00 in
15:14 72.1 °F 63.4 °F 29.78 in SSW 17.0 mph 19.0 mph 74% 0.00 in
15:19 72.1 °F 63.0 °F 29.78 in SW 14.0 mph 23.0 mph 73% 0.00 in
15:25 72.0 °F 62.9 °F 29.78 in SSW 14.0 mph 23.0 mph 73% 0.00 in
15:30 71.9 °F 62.8 °F 29.77 in SSW 11.0 mph 15.0 mph 73% 0.00 in
15:35 71.8 °F 63.1 °F 29.77 in SW 10.0 mph 13.0 mph 74% 0.00 in
15:40 72.1 °F 63.4 °F 29.78 in SSW 11.0 mph 18.0 mph 74% 0.00 in
15:45 72.3 °F 63.2 °F 29.77 in SW 22.0 mph 22.0 mph 73% 0.00 in
15:50 72.4 °F 63.3 °F 29.77 in SSE 12.0 mph 19.0 mph 73% 0.00 in
15:55 72.3 °F 63.2 °F 29.75 in SSW 11.0 mph 16.0 mph 73% 0.00 in
16:00 72.2 °F 63.1 °F 29.76 in South 16.0 mph 17.0 mph 73% 0.00 in
16:05 72.1 °F 63.4 °F 29.75 in South 8.0 mph 20.0 mph 74% 0.00 in
16:10 72.0 °F 63.3 °F 29.76 in SW 14.0 mph 18.0 mph 74% 0.00 in
16:15 71.7 °F 63.0 °F 29.76 in South 13.0 mph 25.0 mph 74% 0.00 in
16:20 72.4 °F 63.7 °F 29.75 in SSW 6.0 mph 19.0 mph 74% 0.00 in
16:25 72.9 °F 63.8 °F 29.74 in SSW 16.0 mph 21.0 mph 73% 0.00 in
16:31 72.9 °F 63.3 °F 29.76 in SW 21.0 mph 21.0 mph 72% 0.00 in
16:36 72.5 °F 63.4 °F 29.77 in WSW 17.0 mph 23.0 mph 73% 0.00 in
16:41 71.8 °F 63.1 °F 29.77 in SSW 20.0 mph 23.0 mph 74% 0.00 in
16:46 71.2 °F 62.9 °F 29.77 in SSW 12.0 mph 20.0 mph 75% 0.00 in
16:51 70.9 °F 63.0 °F 29.77 in SW 12.0 mph 19.0 mph 76% 0.00 in
16:56 70.7 °F 63.1 °F 29.77 in SW 19.0 mph 19.0 mph 77% 0.00 in
17:01 70.0 °F 63.2 °F 29.77 in SW 8.0 mph 18.0 mph 79% 0.00 in
17:06 69.7 °F 63.3 °F 29.77 in WSW 11.0 mph 18.0 mph 80% 0.00 in
17:11 68.9 °F 63.5 °F 29.80 in WSW 9.0 mph 14.0 mph 83% 0.00 in
17:16 68.1 °F 63.4 °F 29.79 in WSW 11.0 mph 16.0 mph 85% 0.14 in
17:21 67.7 °F 63.4 °F 29.78 in SW 17.0 mph 19.0 mph 86% 0.08 in
17:27 66.8 °F 63.5 °F 29.78 in SSW 13.0 mph 18.0 mph 89% 0.08 in
17:32 66.5 °F 63.5 °F 29.80 in SW 12.0 mph 16.0 mph 90% 0.06 in
17:37 66.2 °F 63.5 °F 29.80 in South 13.0 mph 14.0 mph 91% 0.04 in
17:42 66.0 °F 63.3 °F 29.80 in SW 5.0 mph 10.0 mph 91% 0.00 in
17:47 66.0 °F 63.3 °F 29.80 in SW 9.0 mph 14.0 mph 91% 0.00 in
17:52 65.9 °F 63.5 °F 29.80 in WSW 9.0 mph 12.0 mph 92% 0.00 in
17:57 66.0 °F 63.3 °F 29.80 in SW 12.0 mph 15.0 mph 91% 0.00 in
18:02 66.0 °F 63.3 °F 29.80 in SW 10.0 mph 12.0 mph 91% 0.00 in
18:07 66.0 °F 63.3 °F 29.80 in SSW 12.0 mph 16.0 mph 91% 0.00 in
18:12 66.0 °F 63.3 °F 29.80 in SSW 7.0 mph 12.0 mph 91% 0.00 in
18:17 66.0 °F 63.3 °F 29.80 in SW 7.0 mph 15.0 mph 91% 0.00 in
18:22 66.0 °F 63.3 °F 29.80 in SSW 6.0 mph 11.0 mph 91% 0.00 in
18:27 66.0 °F 63.3 °F 29.81 in SW 8.0 mph 11.0 mph 91% 0.00 in
18:32 65.9 °F 63.2 °F 29.81 in South 6.0 mph 10.0 mph 91% 0.00 in
18:37 65.8 °F 63.1 °F 29.81 in SW 9.0 mph 9.0 mph 91% 0.00 in
18:42 65.9 °F 63.2 °F 29.81 in SW 7.0 mph 9.0 mph 91% 0.00 in
18:47 65.9 °F 63.2 °F 29.82 in SSW 7.0 mph 9.0 mph 91% 0.00 in
18:52 65.9 °F 63.2 °F 29.82 in SSE 5.0 mph 10.0 mph 91% 0.00 in
18:58 65.9 °F 63.2 °F 29.81 in SSE 6.0 mph 7.0 mph 91% 0.00 in
19:03 65.8 °F 63.1 °F 29.80 in WSW 7.0 mph 11.0 mph 91% 0.00 in
19:08 65.8 °F 63.1 °F 29.80 in SSE 11.0 mph 12.0 mph 91% 0.00 in
19:13 65.8 °F 63.1 °F 29.80 in South 5.0 mph 9.0 mph 91% 0.00 in
19:18 65.8 °F 63.1 °F 29.81 in SSE 10.0 mph 14.0 mph 91% 0.00 in
19:23 65.8 °F 63.1 °F 29.81 in South 4.0 mph 9.0 mph 91% 0.00 in
19:28 65.6 °F 62.9 °F 29.82 in SSE 4.0 mph 9.0 mph 91% 0.00 in
19:33 65.5 °F 62.8 °F 29.83 in SSW 4.0 mph 9.0 mph 91% 0.00 in
19:38 65.5 °F 62.8 °F 29.83 in WSW 6.0 mph 8.0 mph 91% 0.00 in
19:43 65.4 °F 62.7 °F 29.83 in SSW 10.0 mph 10.0 mph 91% 0.00 in
19:48 65.3 °F 62.6 °F 29.84 in WSW 8.0 mph 8.0 mph 91% 0.00 in
19:53 65.2 °F 62.8 °F 29.83 in SSW 5.0 mph 9.0 mph 92% 0.00 in
19:58 65.2 °F 62.8 °F 29.84 in West 3.0 mph 5.0 mph 92% 0.00 in
20:03 65.2 °F 62.8 °F 29.83 in South 7.0 mph 8.0 mph 92% 0.00 in
20:08 65.2 °F 62.8 °F 29.83 in SSE 6.0 mph 8.0 mph 92% 0.00 in
20:13 65.2 °F 62.8 °F 29.83 in SSW 4.0 mph 10.0 mph 92% 0.00 in
20:18 65.2 °F 62.8 °F 29.83 in SSW 4.0 mph 10.0 mph 92% 0.00 in
20:23 65.0 °F 62.6 °F 29.83 in SW 8.0 mph 8.0 mph 92% 0.00 in
20:28 64.9 °F 62.5 °F 29.83 in SSW 5.0 mph 10.0 mph 92% 0.00 in
20:33 64.9 °F 62.5 °F 29.83 in SW 7.0 mph 8.0 mph 92% 0.00 in
20:38 65.0 °F 62.6 °F 29.83 in SW 8.0 mph 9.0 mph 92% 0.00 in
20:44 65.1 °F 62.7 °F 29.83 in WSW 6.0 mph 14.0 mph 92% 0.00 in
20:49 65.2 °F 62.8 °F 29.83 in SW 8.0 mph 12.0 mph 92% 0.00 in
20:54 65.3 °F 62.9 °F 29.84 in SW 10.0 mph 11.0 mph 92% 0.00 in
20:59 65.4 °F 63.0 °F 29.84 in SW 8.0 mph 14.0 mph 92% 0.00 in
21:04 65.4 °F 63.0 °F 29.84 in SW 13.0 mph 14.0 mph 92% 0.00 in
21:09 65.5 °F 63.1 °F 29.84 in SW 8.0 mph 12.0 mph 92% 0.00 in
21:14 65.5 °F 63.1 °F 29.84 in WSW 14.0 mph 14.0 mph 92% 0.00 in
21:19 65.5 °F 63.1 °F 29.83 in SW 6.0 mph 18.0 mph 92% 0.00 in
21:24 65.4 °F 63.0 °F 29.83 in WSW 7.0 mph 13.0 mph 92% 0.00 in
21:29 65.3 °F 62.9 °F 29.84 in SW 11.0 mph 12.0 mph 92% 0.00 in
21:34 65.4 °F 63.0 °F 29.84 in SW 8.0 mph 19.0 mph 92% 0.00 in
21:39 65.4 °F 63.0 °F 29.84 in SW 7.0 mph 14.0 mph 92% 0.00 in
21:44 65.5 °F 63.1 °F 29.83 in WSW 8.0 mph 16.0 mph 92% 0.00 in
21:49 65.6 °F 63.2 °F 29.84 in SW 9.0 mph 15.0 mph 92% 0.00 in
21:54 65.6 °F 63.2 °F 29.84 in SW 7.0 mph 13.0 mph 92% 0.00 in
21:59 65.6 °F 63.2 °F 29.84 in SW 9.0 mph 14.0 mph 92% 0.00 in
22:04 65.6 °F 63.2 °F 29.84 in SW 7.0 mph 9.0 mph 92% 0.00 in
22:09 65.6 °F 63.2 °F 29.84 in SSW 10.0 mph 13.0 mph 92% 0.00 in
22:14 65.6 °F 63.2 °F 29.84 in SSW 12.0 mph 16.0 mph 92% 0.00 in
22:19 65.6 °F 62.9 °F 29.84 in SW 6.0 mph 15.0 mph 91% 0.00 in
22:24 65.6 °F 62.9 °F 29.84 in WSW 7.0 mph 14.0 mph 91% 0.00 in
22:29 65.6 °F 62.9 °F 29.84 in WSW 11.0 mph 16.0 mph 91% 0.00 in
22:34 65.4 °F 62.7 °F 29.84 in WSW 10.0 mph 14.0 mph 91% 0.00 in
22:40 65.3 °F 62.6 °F 29.84 in SW 13.0 mph 14.0 mph 91% 0.00 in
22:45 65.1 °F 62.7 °F 29.84 in SW 8.0 mph 16.0 mph 92% 0.00 in
22:50 65.0 °F 62.6 °F 29.84 in SW 15.0 mph 15.0 mph 92% 0.00 in
22:56 64.9 °F 62.5 °F 29.85 in SW 12.0 mph 13.0 mph 92% 0.00 in
23:01 64.8 °F 62.4 °F 29.85 in SW 11.0 mph 14.0 mph 92% 0.00 in
23:06 64.8 °F 62.4 °F 29.85 in SSW 7.0 mph 16.0 mph 92% 0.00 in
23:11 64.9 °F 62.5 °F 29.85 in WSW 9.0 mph 14.0 mph 92% 0.00 in
23:16 64.8 °F 62.4 °F 29.84 in SW 8.0 mph 13.0 mph 92% 0.00 in
23:21 64.8 °F 62.4 °F 29.85 in SW 11.0 mph 14.0 mph 92% 0.00 in
23:26 64.6 °F 62.2 °F 29.85 in SW 10.0 mph 13.0 mph 92% 0.00 in
23:31 64.6 °F 62.2 °F 29.84 in SW 8.0 mph 12.0 mph 92% 0.00 in
23:36 64.6 °F 62.5 °F 29.85 in WSW 10.0 mph 12.0 mph 93% 0.00 in
23:41 64.6 °F 62.2 °F 29.85 in SW 8.0 mph 11.0 mph 92% 0.00 in
23:46 64.6 °F 62.2 °F 29.85 in WSW 12.0 mph 12.0 mph 92% 0.00 in
23:51 64.5 °F 62.1 °F 29.85 in WSW 7.0 mph 10.0 mph 92% 0.00 in
23:56 64.5 °F 62.4 °F 29.85 in WSW 7.0 mph 10.0 mph 93% 0.00 in
Compliments of Weather Underground